Regional Weather Roundup
Issued by NWS

Home | Current Version | Previous Version | Graphics & Text | Print | Product List | Glossary On
Versions: 1 2 3 4 5 6 7 8 9 10 11 12 13 14 15 16 17 18 19 20 21 22 23 24 25 26 27 28 29 30 31 32 33 34 35 36 37 38 39 40 41 42 43 44 45 46 47 48 49 50
155
ASUS43 KLOT 241803
RWRIL

ILLINOIS REGIONAL WEATHER ROUNDUP
NATIONAL WEATHER SERVICE CHICAGO/ROMEOVILLE IL
100 PM CDT SUN JUL 24 2016

NOTE: "FAIR" INDICATES FEW OR NO CLOUDS BELOW 12,000 FEET WITH NO
SIGNIFICANT WEATHER AND/OR OBSTRUCTIONS TO VISIBILITY.

* THESE STATIONS ARE NOT UNDER NWS QUALITY CONTROL. THEY ALSO MAY NOT
  REPORT WEATHER SUCH AS PRECIPITATION OR FOG.

ILZ001-002-007-009-015-016-024-241900-
NORTHWEST ILLINOIS

CITY           SKY/WX    TMP DP  RH WIND       PRES   REMARKS
MOLINE         CLOUDY    92  77  61 SW12      29.86S HX 105
6HR MIN TEMP:  81; 6HR MAX TEMP:  92;

STERLING*      CLOUDY    89  80  74 SW10      29.87S HX 106
SAVANNA*       CLOUDY    88  79  73 W8        29.86S HX 102
$$

ILZ003-004-008-010-011-017-018-241900-
NORTH CENTRAL ILLINOIS

CITY           SKY/WX    TMP DP  RH WIND       PRES   REMARKS
ROCKFORD       PTSUNNY   92  77  61 SW18      29.87S HX 105
FREEPORT*      PTSUNNY   88  78  72 W10       29.89S HX 101
ROCHELLE*      MOSUNNY   89  81  76 SW14      29.88S HX 107
DE KALB*       MOSUNNY   90  82  76 S18       29.89S HX 110
$$

ILZ005-006-012>014-019>023-241900-
NORTHEAST ILLINOIS

CITY           SKY/WX    TMP DP  RH WIND       PRES   REMARKS
CHICAGO-OHARE  PTSUNNY   89  78  70 S16G23    29.88S HX 103
6HR MIN TEMP:  73; 6HR MAX TEMP:  89;

CHICAGO-MIDWAY CLOUDY    90  77  65 SW15G22   29.89S HX 103
6HR MIN TEMP:  74; 6HR MAX TEMP:  90;

AURORA         MOSUNNY   91  80  70 S15       29.88F HX 109
6HR MIN TEMP:  74; 6HR MAX TEMP:  91;

LANSING*       CLOUDY    88  77  70 S13       29.92S HX 100
WAUKEGAN       PTSUNNY   91  77  63 S17G23    29.85F HX 104
6HR MIN TEMP:  74; 6HR MAX TEMP:  92;

DUPAGE AIRPORT MOSUNNY   91  79  67 S14       29.88F HX 107
6HR MIN TEMP:  73; 6HR MAX TEMP:  91;

WHEELING       PTSUNNY   90  77  65 S18       29.88F HX 103
6HR MIN TEMP:  73; 6HR MAX TEMP:  91;

MORRIS*        PTSUNNY   89  80  74 SW13      29.89F HX 106
NORTHERLY ISL    N/A     87  75  67 S13         N/A  HX  96
$$

LMZ740>746-241900-
SOUTHERN LAKE MICHIGAN

STATION/POSITION SKY/WX   TEMP    WIND        PRES    VSBY  WAVE
                          AIR SEA DIR/SP/G                  HT/PER
                          (F)     (DEG/KT/KT) (MB)    (MI)  (FT/S)
SOUTHERN BUOY              75 72  150/ 17/ 21 1011.3          3/ 5
WILMETTE HARBOR            75 63  220/  8/ 10   N/A           2/ 2
HARRISON CRIB              84     200/ 18/ 20   N/A
BURNHAM HARBOR             88     200/ 16/ 18   N/A
CALUMET HARBOR             86     190/ 11/ 17 1012.1F
BURNS HARBOR               86     190/ 11/ 21 1013.5F
MICHIGAN CITY              84     180/ 16/ 19   N/A
MICHIGAN CITY 6N           81 74  200/ 10/ 14   N/A           1/ 3
ST. JOSEPH                 78 74   40/  6/ 10 1013.7R         2/ 3
$$

ILZ025>027-034>036-040-047-049-050-058-095>099-241900-
WEST-CENTRAL ILLINOIS

CITY           SKY/WX    TMP DP  RH WIND       PRES   REMARKS
QUINCY         SUNNY     94  77  57 SW10      29.91S HX 108
GALESBURG*     MOSUNNY   89  78  70 SW10      29.90S HX 102
MACOMB*        MOSUNNY   91  79  68 SW12      29.92S HX 107
JACKSONVILLE*  SUNNY     91  81  73 S8        29.92F HX 110
PITTSFIELD*    SUNNY     92  81  71 S9        29.93F HX 112
$$

ILZ028>032-037-038-041>044-048-051>054-059>061-241900-
CENTRAL ILLINOIS

CITY           SKY/WX    TMP DP  RH WIND       PRES   REMARKS
PONTIAC        MOSUNNY   90  83  79 S12       29.93F HX 112
BLOOMINGTON    MOSUNNY   89  80  74 S14       29.95S HX 106
DECATUR        SUNNY     92  77  61 SW13      29.95F HX 105
PEORIA         SUNNY     90  81  74 S13       29.90F HX 109
6HR MIN TEMP:  78; 6HR MAX TEMP:  91;

LACON*         SUNNY     90  79  68 S14       29.88F HX 105
LINCOLN*       SUNNY     91  82  75 S12       29.93S HX 111
SPRINGFIELD    MOSUNNY   92  80  68 S10       29.93S HX 110
6HR MIN TEMP:  80; 6HR MAX TEMP:  92;

TAYLORVILLE    MOSUNNY   89  80  75 NW12      29.95F HX 106
$$

ILZ033-039-045-046-055>057-062-063-241900-
EAST-CENTRAL ILLINOIS

CITY           SKY/WX    TMP DP  RH WIND       PRES   REMARKS
CHAMPAIGN      SUNNY     88  78  72 S12       29.97S HX 101
MATTOON        MOSUNNY   89  76  65 SW8       29.97F HX 100
PARIS*         MOSUNNY   89  81  76 S6        29.98F HX 107
$$

ILZ079-100>102-241900-
SOUTHWEST ILLINOIS

CITY           SKY/WX    TMP DP  RH WIND       PRES   REMARKS
ALTON          MOSUNNY   91  79  66 S12       29.96S HX 107
BELLEVILLE     SUNNY     92  81  69 S5        29.95F HX 112
CAHOKIA*       SUNNY     94  77  57 S8        29.95S HX 108
SPARTA*        SUNNY     90  77  66 S6        29.98F HX 103
$$

ILZ064>066-069>071-074>076-080>082-084>086-088>090-092>094-241900-
SOUTH-CENTRAL ILLINOIS

CITY           SKY/WX    TMP DP  RH WIND       PRES   REMARKS
CARBONDALE     MOSUNNY   91  75  59 S7        29.98F HX 101
6HR MIN TEMP:  76; 6HR MAX TEMP:  91;

CAIRO*         MOSUNNY   89  78  70 S8        29.99F HX 102
EFFINGHAM*     MOSUNNY   90  78  67 S9        29.99F HX 104
MARION         PTSUNNY   90  77  66 S12       30.00S HX 102
MT. VERNON     SUNNY     93  75  55 S9        29.98F HX 104
CENTRALIA*     SUNNY     92  79  65 S9        29.97F HX 108
SALEM*         MOSUNNY   91  77  63 SW7       29.97F HX 105
METROPOLIS*    MOSUNNY   91  77  64 CALM      30.00F HX 104
$$

ILZ067-068-072-073-078-083-087-091-241900-
SOUTHEAST ILLINOIS

CITY           SKY/WX    TMP DP  RH WIND       PRES   REMARKS
LAWRENCEVILLE  SUNNY     90  80  72 S9        29.99S HX 107
FLORA*         MOSUNNY   91  78  66 S5        29.99S HX 106
FAIRFIELD*     MOSUNNY   90  78  67 S5        29.97S HX 104
HARRISBURG*    MOSUNNY   90  78  67 SW7       29.99F HX 104
ROBINSON*      MOSUNNY   89  79  70 S8        29.99S HX 104
CARMI*         MOSUNNY   88  80  76 S6        29.98F HX 105
$$

ABBREVIATIONS USED IN REMARKS
   TC - TEMPERATURE IN CELSIUS
  WCI - WIND CHILL INDEX
   HX - HEAT INDEX
  VSB - VISIBILITY
$$





USA.gov is the U.S. government's official web portal to all federal, state and local government web resources and services.